Weather History for Palacios, TX

Change the Weather History Date:

Saturday, July 13, 2013

  Actual Average Record
Temperature  
Mean Temperature 83 °F -  
Max Temperature 93 °F 89 °F 94 °F (1951)
Min Temperature 73 °F 77 °F 70 °F (1990)
Cooling Degree Days 18    
Growing Degree Days 33 (Base 50)    
Moisture  
Dew Point 72 °F    
Average Humidity 68    
Maximum Humidity 93    
Minimum Humidity 45    
Precipitation  
Precipitation 0.00 in - - ()
Sea Level Pressure  
Sea Level Pressure 29.92 in    
Wind  
Wind Speed 7 mph (SSW)    
Max Wind Speed 16 mph    
Max Gust Speed 22 mph    
Visibility 10 miles    
Events      
Averages and records for this station are not official NWS values.
T = Trace of Precipitation, MM = Missing Value Source: NWS Daily Summary

Daily Weather History Graph

Daily Weather History Graph

Search for Another Location

Airport:

Trip Planner

Search our weather history database for the weather conditions in past years. The results will help you decide how hot, cold, wet, or windy it might be!

Date:

Astronomy

Jul. 13, 2013 Rise Set
Actual Time 6:36 AM CDT 8:25 PM CDT
Civil Twilight 6:09 AM CDT 8:51 PM CDT
Nautical Twilight 5:37 AM CDT 9:23 PM CDT
Astronomical Twilight 5:03 AM CDT 9:57 PM CDT
Moon 11:23 AM CDT (7/13) 11:38 PM CDT (7/13)
Length of Visible Light 14h 42m
Length of Day
13h 49m
Waxing Crescent, 26% of the Moon is Illuminated
Jul 13
Waxing Crescent
Jul 15
First Quarter
Jul 22
Full
Jul 29
Last Quarter
Aug 6
New

Hourly Weather History & Observations

Time (CDT) Temp. Heat Index Dew Point Humidity Pressure Visibility Wind Dir Wind Speed Gust Speed Precip Events Conditions
12:53 AM 82.9 °F 89.4 °F 73.9 °F 74% 29.92 in 10.0 mi South 4.6 mph - N/A   Clear
1:53 AM 82.9 °F 90.2 °F 75.0 °F 77% 29.92 in 10.0 mi SSW 6.9 mph - N/A   Clear
2:53 AM 82.0 °F 87.9 °F 73.9 °F 76% 29.92 in 10.0 mi SW 5.8 mph - N/A   Clear
3:53 AM 75.0 °F - 71.1 °F 87% 29.92 in 10.0 mi Calm Calm - N/A   Clear
4:53 AM 73.9 °F - 71.1 °F 91% 29.92 in 10.0 mi Calm Calm - N/A   Clear
5:53 AM 73.9 °F - 72.0 °F 93% 29.92 in 10.0 mi Calm Calm - N/A   Clear
6:53 AM 73.9 °F - 71.1 °F 91% 29.95 in 10.0 mi Calm Calm - N/A   Clear
7:53 AM 78.1 °F - 75.0 °F 90% 29.96 in 10.0 mi WNW 4.6 mph - N/A   Clear
8:53 AM 82.9 °F 89.4 °F 73.9 °F 74% 29.97 in 10.0 mi West 6.9 mph - N/A   Clear
9:53 AM 86.0 °F 93.0 °F 73.0 °F 65% 29.98 in 10.0 mi NW 5.8 mph - N/A   Partly Cloudy
10:53 AM 87.1 °F 92.0 °F 70.0 °F 57% 29.98 in 10.0 mi West 4.6 mph - N/A   Overcast
11:53 AM 90.0 °F 96.4 °F 71.1 °F 54% 29.96 in 10.0 mi SSW 5.8 mph - N/A   Clear
1:53 PM 91.9 °F 95.9 °F 68.0 °F 45% 29.93 in 10.0 mi SSW 13.8 mph - N/A   Clear
2:53 PM 93.0 °F 97.9 °F 69.1 °F 45% 29.91 in 10.0 mi SSW 13.8 mph - N/A   Clear
3:53 PM 91.9 °F 99.5 °F 72.0 °F 52% 29.91 in 10.0 mi SSW 13.8 mph - N/A   Clear
4:53 PM 91.0 °F 97.6 °F 71.1 °F 52% 29.89 in 10.0 mi South 15.0 mph - N/A   Clear
5:53 PM 90.0 °F 94.5 °F 69.1 °F 50% 29.86 in 10.0 mi South 16.1 mph 21.9 mph N/A   Clear
6:53 PM 88.0 °F 94.7 °F 72.0 °F 59% 29.86 in 10.0 mi SSW 16.1 mph 20.7 mph N/A   Clear
7:53 PM 87.1 °F 94.5 °F 73.0 °F 63% 29.86 in 10.0 mi SSW 12.7 mph 20.7 mph N/A   Clear
8:53 PM 86.0 °F 91.5 °F 71.1 °F 61% 29.86 in 10.0 mi South 11.5 mph - N/A   Clear
9:53 PM 84.9 °F 90.7 °F 72.0 °F 65% 29.88 in 10.0 mi South 9.2 mph - N/A   Clear
10:53 PM 84.9 °F 91.4 °F 73.0 °F 67% 29.88 in 10.0 mi South 10.4 mph - N/A   Clear
11:53 PM 84.9 °F 90.7 °F 72.0 °F 65% 29.90 in 10.0 mi South 11.5 mph - N/A   Clear